Date String (YYYY-MM-DD hh:mm:ss) UTC,Instrument flags,Ambient pressure (hPa),Sample flow (lpm),Bypass flow (lpm),Sample temperature (°C),Ambient temperature (°C),ASC tube jacket temperature (°C),LED temperature (°C),Box temperature (°C),Sample RH (%),Span deviation,Mass concentration (μg/m³),Mass concentration (μg/m³),Mass concentration (μg/m³)
DateTimeUTC,F1_M11,P_M11,Q1_M11,Q2_M11,T1_M11,T2_M11,T3_M11,T4_M11,T5_M11,U1_M11,ZSPAN_M11,X2_M11,X0_M11,X1_M11
2022-03-28 09:00:00,,0819.9,5.00,0.00,28.0,27.1,00.0,37.0,29.8,13.6,0002.3,0015.24,0028.29,0013.54
2022-03-28 09:01:00,,0819.8,5.01,0.00,28.0,27.1,00.0,37.0,29.7,13.5,0002.7,0015.14,0027.08,0013.41
2022-03-28 09:02:00,,0819.9,5.00,0.00,28.0,27.1,00.0,37.0,29.7,13.1,0002.9,0015.03,0027.01,0013.33
2022-03-28 09:03:00,,0819.8,5.00,0.00,28.0,27.1,00.0,37.0,29.8,13.1,0003.1,0015.07,0026.61,0013.37
2022-03-28 09:04:00,,0819.8,5.01,0.00,28.0,27.1,00.0,37.0,29.8,13.6,0003.3,0015.17,0027.72,0013.46
2022-03-28 09:05:00,,0819.8,5.00,0.00,28.0,27.1,00.0,37.0,29.8,14.0,0003.3,0015.29,0029.65,0013.55
2022-03-28 09:06:00,,0819.8,4.99,0.00,28.0,27.1,00.0,37.0,29.7,14.2,0003.4,0015.41,0029.79,0013.65
2022-03-28 09:07:00,,0819.8,4.99,0.00,27.9,27.0,00.0,37.0,29.7,14.4,0003.6,0015.61,0029.28,0013.80
2022-03-28 09:08:00,,0819.8,5.02,0.00,27.9,27.0,00.0,37.0,29.7,14.4,0003.6,0015.79,0030.60,0013.98
2022-03-28 09:09:00,,0819.7,4.99,0.00,27.9,27.0,00.0,37.0,29.6,14.3,0003.7,0016.04,0032.85,0014.20
2022-03-28 09:10:00,,0819.7,4.99,0.00,27.9,27.0,00.0,36.9,29.6,14.1,0003.5,0016.21,0032.96,0014.38
2022-03-28 09:11:00,,0819.8,5.00,0.00,27.9,27.0,00.0,36.9,29.6,13.9,0003.6,0016.16,0033.10,0014.37
2022-03-28 09:12:00,,0819.8,5.02,0.00,27.9,27.0,00.0,36.9,29.7,13.9,0004.0,0016.26,0033.98,0014.42
2022-03-28 09:13:00,,0819.8,5.01,0.00,27.9,27.0,00.0,36.9,29.7,13.8,0004.1,0016.46,0033.89,0014.56
2022-03-28 09:14:00,,0819.8,4.99,0.00,27.9,27.0,00.0,36.9,29.6,13.1,0004.2,0016.46,0033.86,0014.62
2022-03-28 09:15:00,,0819.8,4.99,0.00,27.9,27.0,00.0,36.9,29.6,12.6,0003.9,0016.31,0033.50,0014.51
2022-03-28 09:16:00,,0819.7,5.02,0.00,27.9,27.0,00.0,36.9,29.6,12.5,0003.8,0015.95,0032.70,0014.24
2022-03-28 09:17:00,,0819.7,4.99,0.00,27.9,26.9,00.0,36.9,29.6,13.2,0003.9,0015.68,0033.46,0013.98
2022-03-28 09:18:00,,0819.6,4.99,0.00,27.9,26.9,00.0,36.9,29.6,13.7,0004.0,0015.48,0033.83,0013.81
2022-03-28 09:19:00,,0819.6,4.99,0.00,27.8,26.9,00.0,36.9,29.6,13.5,0004.3,0015.32,0032.75,0013.65
2022-03-28 09:20:00,,0819.6,5.00,0.00,27.8,26.9,00.0,36.9,29.5,12.9,0004.4,0015.10,0031.02,0013.40
2022-03-28 09:21:00,,0819.6,5.02,0.00,27.8,26.9,00.0,36.9,29.6,12.7,0004.8,0014.74,0029.83,0013.07
2022-03-28 09:22:00,,0819.6,4.99,0.00,27.8,26.9,00.0,36.9,29.6,12.9,0005.0,0014.58,0030.11,0012.88
2022-03-28 09:23:00,,0819.6,4.98,0.00,27.8,26.9,00.0,36.9,29.6,13.5,0004.6,0014.47,0029.37,0012.84
2022-03-28 09:24:00,,0819.6,5.01,0.00,27.8,26.9,00.0,36.9,29.6,13.8,0004.3,0014.45,0029.61,0012.82
2022-03-28 09:25:00,,0819.6,4.99,0.00,27.8,27.0,00.0,36.9,29.6,14.1,0004.2,0014.48,0029.76,0012.81
2022-03-28 09:26:00,,0819.6,5.00,0.00,27.8,27.0,00.0,36.9,29.6,13.5,0004.6,0014.57,0029.16,0012.85
2022-03-28 09:27:00,,0819.5,5.02,0.00,27.8,26.9,00.0,36.8,29.5,13.1,0004.5,0014.72,0028.30,0012.98
2022-03-28 09:28:00,,0819.5,4.99,0.00,27.8,26.9,00.0,36.8,29.5,13.2,0004.5,0014.73,0026.90,0013.07
2022-03-28 09:29:00,,0819.4,5.00,0.00,27.8,26.9,00.0,36.8,29.6,13.8,0004.1,0014.80,0026.92,0013.16
2022-03-28 09:30:00,,0819.5,5.01,0.00,27.8,26.9,00.0,36.8,29.6,14.1,0003.6,0014.83,0027.47,0013.20
2022-03-28 09:31:00,,0819.5,4.99,0.00,27.8,26.9,00.0,36.8,29.6,14.1,0003.4,0014.97,0028.86,0013.32
2022-03-28 09:32:00,,0819.5,5.01,0.00,27.8,26.9,00.0,36.8,29.6,14.1,0002.2,0015.32,0029.74,0013.59
2022-03-28 09:33:00,,0819.4,5.01,0.00,27.8,26.9,00.0,36.8,29.6,14.0,0001.9,0015.50,0028.86,0013.75
2022-03-28 09:34:00,,0819.4,4.99,0.00,27.8,26.9,00.0,36.8,29.6,13.9,0001.9,0015.48,0028.80,0013.72
2022-03-28 09:35:00,,0819.3,4.99,0.00,27.8,26.8,00.0,36.8,29.6,13.9,0002.1,0015.42,0028.76,0013.72
2022-03-28 09:36:00,,0819.3,5.01,0.00,27.8,26.8,00.0,36.8,29.6,14.0,0001.9,0015.56,0029.19,0013.81
2022-03-28 09:37:00,,0819.5,5.01,0.00,27.8,26.9,00.0,36.8,29.6,13.9,0001.6,0015.65,0029.22,0013.93
2022-03-28 09:38:00,,0819.6,4.99,0.00,27.8,26.8,00.0,36.8,29.6,13.9,0001.4,0015.74,0028.97,0014.00
2022-03-28 09:39:00,,0819.6,4.99,0.00,27.8,26.8,00.0,36.8,29.6,14.0,0001.3,0015.78,0029.21,0014.00
2022-03-28 09:40:00,,0819.5,4.99,0.00,27.8,26.8,00.0,36.8,29.5,14.0,0001.7,0015.62,0028.39,0013.81
2022-03-28 09:41:00,,0819.5,5.00,0.00,27.8,26.9,00.0,36.8,29.5,14.0,0001.5,0015.48,0027.75,0013.67
2022-03-28 09:42:00,,0819.3,5.01,0.00,27.8,26.9,00.0,36.8,29.6,13.9,0001.2,0015.33,0025.87,0013.57
2022-03-28 09:43:00,,0819.2,5.00,0.00,27.8,26.9,00.0,36.8,29.5,13.7,0001.5,0015.17,0024.98,0013.48
2022-03-28 09:44:00,,0819.3,5.01,0.00,27.8,26.9,00.0,36.8,29.5,13.8,0001.6,0015.12,0024.53,0013.41
2022-03-28 09:45:00,,0819.4,5.00,0.00,27.8,26.8,00.0,36.8,29.5,13.9,0001.6,0015.08,0023.96,0013.36
2022-03-28 09:46:00,,0819.4,4.99,0.00,27.8,26.9,00.0,36.8,29.6,14.0,0001.7,0015.08,0023.98,0013.28
2022-03-28 09:47:00,,0819.5,5.00,0.00,27.8,26.9,00.0,36.8,29.6,13.9,0001.8,0014.85,0023.77,0013.14
2022-03-28 09:48:00,,0819.4,5.00,0.00,27.8,26.9,00.0,36.8,29.5,13.7,0001.8,0014.75,0023.77,0013.03
2022-03-28 09:49:00,,0819.4,5.01,0.00,27.8,26.9,00.0,36.8,29.5,13.8,0002.3,0014.74,0024.59,0013.00
2022-03-28 09:50:00,,0819.4,4.99,0.00,27.8,26.9,00.0,36.8,29.6,13.8,0002.4,0014.71,0025.24,0012.98
2022-03-28 09:51:00,,0819.3,4.99,0.00,27.8,26.9,00.0,36.8,29.6,13.7,0002.3,0014.70,0024.96,0013.04
2022-03-28 09:52:00,,0819.2,5.00,0.00,27.8,26.9,00.0,36.8,29.6,13.7,0002.5,0014.77,0025.06,0013.10
2022-03-28 09:53:00,,0819.2,5.01,0.00,27.8,26.9,00.0,36.8,29.6,13.6,0002.8,0014.81,0025.20,0013.15
2022-03-28 09:54:00,,0819.3,5.00,0.00,27.8,26.9,00.0,36.8,29.6,13.7,0003.1,0014.94,0026.27,0013.26
2022-03-28 09:55:00,,0819.3,4.99,0.00,27.8,26.9,00.0,36.8,29.6,13.9,0003.2,0014.97,0026.26,0013.34
2022-03-28 09:56:00,,0819.3,4.99,0.00,27.8,26.9,00.0,36.8,29.6,14.0,0003.2,0015.00,0027.70,0013.34
2022-03-28 09:57:00,,0819.4,5.00,0.00,27.8,26.9,00.0,36.8,29.6,14.0,0003.3,0014.88,0028.91,0013.31
2022-03-28 09:58:00,,0819.4,5.00,0.00,27.8,26.9,00.0,36.8,29.6,13.9,0003.3,0014.86,0028.68,0013.28
2022-03-28 09:59:00,,0819.4,5.00,0.00,27.8,26.9,00.0,36.8,29.6,13.9,0003.1,0014.86,0028.33,0013.30
